Weather in Kazanskaya Archada

Russia / Penza Oblast     53°00′50″N   44°13′51″E
temp.,
°C
wind,
m/s
gust,
m/s
humid.,
%
clouds,
%
prec.,
mm/h
press.,
hPa
HPBL,
m
17 june, thu
thu1700:00+17n38938 0.0 1014148
03:00+15n511925 0.0 1016248
06:00+17ne510912 0.0 1016348
09:00+20nne68660 0.0 1018822
12:00+21nne67550 0.0 10201332
15:00+22nne67580 0.0 10201430
18:00+21ne46700 0.0 1020551
21:00+16ne47814 0.0 1022116
18 june, fri
fri1800:00+14nne46825 0.0 1023113
03:00+13nne4880100 0.0 1024146
06:00+14ne5117890 0.0 1025367
09:00+18ne58620 0.0 1026810
12:00+20ne66560 0.0 10261326
15:00+20ne55560 0.0 10261305
18:00+18nne47690 0.0 1026460
21:00+14ne47810 0.0 1028109
19 june, sat
sat1900:00+12e33825 0.0 102827
03:00+11ese227949 0.0 102918
06:00+14ese12785 0.0 1029107
09:00+18ese22620 0.0 1029584
12:00+21se22520 0.0 1028959
15:00+22s11491 0.0 1026997
18:00+22wnw00584 0.0 1026810
21:00+17wsw00695 0.0 102611
20 june, sun
sun2000:00+15w11744 0.0 102611
03:00+14nnw11790 0.0 102610
06:00+17n12750 0.0 102670
09:00+22ne11640 0.0 1025484
12:00+25ene00520 0.0 1025993
15:00+26ne11480 0.0 10241229
18:00+25ne22650 0.0 1023182
21:00+20ene22760 0.0 102314
21 june, mon
mon2100:00+18e22805 0.0 102311
03:00+17e228949 0.0 102312
06:00+20e2385100 0.0 1023104
09:00+24e2371100 0.0 1023494
12:00+26se226175 0.0 10221101
15:00+28se12530 0.0 10211475
18:00+27ese11610 0.0 10201476
21:00+22ene11745 0.0 102111